Regional Weather Roundup
Issued by NWS Jackson, KY

Home | Current Version | Previous Version | Text Only | Print | Product List | Glossary On
Versions: 1 2 3 4 5 6 7 8 9 10 11 12 13 14 15 16 17 18 19 20 21 22 23 24 25 26 27 28 29 30 31 32 33 34 35 36 37 38 39 40 41 42 43 44 45 46 47 48 49 50
000
ASUS43 KJKL 191319
RWRJKL

EAST KENTUCKY HOURLY WEATHER ROUNDUP
NATIONAL WEATHER SERVICE JACKSON KY
800 AM EST FRI DEC 19 2014

NOTE: "FAIR" INDICATES FEW OR NO CLOUDS BELOW 12,000 FEET WITH
NO SIGNIFICANT WEATHER AND/OR OBSTRUCTIONS TO VISIBILITY.

* THESE REPORTS ARE NOT UNDER NWS QUALITY CONTROL AND MAY NOT
  REPORT WEATHER SUCH AS PRECIPITATION AND FOG.

KYZ079-080-083-085-087-088-110-112-115-119-120-191400
...EASTERN KENTUCKY...

CITY           SKY/WX    TMP DP  RH WIND       PRES   REMARKS
JACKSON        CLOUDY    29  23  78 CALM      30.24R
LONDON         CLOUDY    33  25  72 N6        30.23S WCI  28
SOMERSET*      CLOUDY    30  27  86 NE5       30.27S WCI  25
MONTICELLO*    CLEAR     25  24  96 CALM      30.28R FOG
MIDDLESBORO*   CLOUDY    33  27  79 CALM      30.23S
HARLAN APT*    CLOUDY    32  27  80 CALM      30.20F
BLACK MTN*       N/A     25  16  68 N7          N/A  WCI  17
PIKEVILLE APT* CLOUDY    28  23  80 CALM      30.23R
BIG SANDY*     CLOUDY    29  24  81 CALM      30.24R
MOREHEAD APT*  CLOUDY    25  21  86 CALM      30.29R FOG
ASHLAND*       CLOUDY    28  19  69 CALM      30.27R
$$

KYZ035-036-041-042-044-050-067-078-099-191400
...CENTRAL KENTUCKY...

CITY           SKY/WX    TMP DP  RH WIND       PRES   REMARKS
MT STERLING*   CLEAR     27  23  86 CALM      30.29R
FLEMING/MASON* CLOUDY    23  21  93 CALM      30.28R FOG
DANVILLE*      CLOUDY    30  27  86 NE3       30.28R
RICHMOND*      CLOUDY    28  23  80 N5        30.27R WCI  23
LEXINGTON      PTCLDY    25  22  88 CALM      30.28R
FRANKFORT      CLEAR     23  20  88 CALM      30.27R FOG
$$

KYZ091>093-OHZ055-061-077-WVZ005-015-034-035-042-191400
...SOUTHERN OHIO/WEST VIRGINIA...

CITY           SKY/WX    TMP DP  RH WIND       PRES   REMARKS
COVINGTON      CLOUDY    27  20  75 N3        30.26S
COLUMBUS       CLOUDY    28  21  75 W5        30.26R WCI  23
DAYTON         CLOUDY    27  20  75 NW5       30.26R WCI  22
WILMINGTON     CLOUDY    26  19  74 N6        30.24S WCI  19
HUNTINGTON     CLOUDY    28  22  78 N3        30.26R
CHARLESTON     CLOUDY    28  22  78 NW3       30.25R
PINEVILLE*     MOCLDY    31  26  82 MISG      30.24R
BECKLEY        CLOUDY    24  18  77 N10       30.15R WCI  14
BLUEFIELD      MOCLDY    27  20  75 NW9       30.13R WCI  18
$$

VAZ002-007-008-TNZ017-027-036-066-071-191400
...SOUTHWEST VIRGINIA/EAST TENNESSEE...

CITY           SKY/WX    TMP DP  RH WIND       PRES   REMARKS
WISE*          CLOUDY    30  27  86 N5        30.16R WCI  25
JONESVILLE*    CLOUDY    34  25  69 CALM      30.23R
ABINGDON*      CLOUDY    36  20  53 NW3       30.16R
BRISTOL        CLOUDY    37  24  59 CALM      30.19R
KNOXVILLE      PTCLDY    32  27  81 CALM      30.21S
OAK RIDGE      CLEAR     32  28  85 E3        30.22S
CROSSVILLE     PTCLDY    30  26  85 NE3       30.19R FOG
NASHVILLE      CLOUDY    35  29  78 NE10      30.26R WCI  27
$$

...KEY TO REMARKS...
VSB - VISIBILITY IN MILES
WCI - WIND CHILL INDEX
HX  - HEAT INDEX

$$


USA.gov is the U.S. government's official web portal to all federal, state and local government web resources and services.